Location: Acton
(51.4942°N, 0.2232°W)
Time: 03:34:11
(UTC+00:00)

X-37B - Visible Passes

Search period start: 27 January 2022 00:00
Search period end: 06 February 2022 00:00
Orbit: 334 x 337 km, 45.0° (Epoch: 11 January)

Date Brightness Start Highest point End Pass type
(mag) Time Alt. Az. Time Alt. Az. Time Alt. Az.
29 Jan 2.7 18:17:09 10° S 18:18:36 13° SSE 18:19:08 13° SSE visible
30 Jan 2.3 18:36:38 10° SW 18:38:43 19° SSE 18:38:45 19° SSE visible
31 Jan 2.9 17:22:36 10° S 17:24:02 13° SSE 17:25:28 10° SE visible
31 Jan 2.4 18:56:37 10° SW 18:58:21 21° SSW 18:58:21 21° SSW visible
01 Feb 2.5 17:42:04 10° SW 17:44:09 19° SSE 17:46:15 10° ESE visible
01 Feb 3.0 19:16:51 10° WSW 19:17:57 17° SW 19:17:57 17° SW visible
02 Feb 2.3 18:02:03 10° SW 18:04:20 22° S 18:06:20 12° SE visible
02 Feb 3.7 19:37:20 10° WSW 19:37:34 11° SW 19:37:34 11° SW visible
03 Feb 2.4 18:22:17 10° WSW 18:24:32 21° S 18:25:59 15° SE visible
04 Feb 2.7 18:42:46 10° WSW 18:44:42 17° SSW 18:45:41 14° S visible
05 Feb 3.2 19:03:56 10° SW 19:04:47 11° SSW 19:05:28 10° S visible
